Wind_Speed
149 148 146 144 143 141 139 138 137 134 132 130 128 127 125 123 121 120 120 118 118 119 120 121 120 118 115 113 112 110 109 108 107 106 104 103 101 100 99 98 97 97 98 100 102 102 101 99 97 97 97 97 96 95 95 95 94 95 95 94 92 90 89 88 87 87 89 89 88 87 87 86 85 84 82 80 77 74 72 72 73 73 71 69 68
154 152 151 150 149 147 144 142 141 141 141 140 138 137 135 133 131 130 129 129 129 129 130 128 125 123 121 120 119 118 116 114 113 113 111 110 109 107 106 105 104 104 105 105 106 105 103 101 100 100 100 99 98 97 96 96 96 96 96 95 93 91 90 90 89 89 90 90 90 88 87 86 85 84 82 79 77 75 73 73 74 73 71 71 69
157 156 155 154 153 152 150 149 147 145 144 143 143 141 140 139 137 135 134 133 133 133 132 130 127 123 122 121 122 122 121 120 119 118 117 116 114 113 112 111 109 109 109 109 108 107 106 105 104 104 104 102 101 100 99 98 98 97 97 96 94 93 93 92 91 91 91 92 91 90 88 86 85 84 81 79 78 76 75 75 75 74 73 72 69
160 159 158 157 155 155 154 153 152 150 148 147 146 144 142 140 139 137 136 135 135 134 133 131 129 126 124 123 123 123 123 123 122 122 121 120 119 118 117 116 114 113 113 112 112 111 110 109 108 108 107 105 104 103 102 100 100 99 99 97 96 95 94 93 93 92 92 92 92 91 89 86 85 84 81 79 78 78 77 76 74 74 74 71 68
163 162 160 159 157 157 156 155 154 153 152 150 149 148 146 145 143 142 141 141 140 138 136 134 132 130 127 126 125 125 125 125 124 123 122 121 121 120 119 118 117 116 115 115 116 115 114 112 112 111 109 108 107 106 105 103 102 102 101 99 98 97 96 95 94 94 93 93 92 91 89 87 86 84 82 80 79 79 79 77 75 75 74 70 68
168 167 165 164 163 161 160 160 159 158 157 156 154 153 152 150 149 148 147 145 144 142 141 139 137 135 132 129 128 127 127 127 126 125 123 123 122 121 120 120 119 118 117 117 118 117 116 115 114 112 110 109 109 108 107 106 105 104 102 101 100 98 98 97 96 95 95 94 92 91 90 88 86 84 82 81 81 81 80 78 76 75 72 69 67
171 170 170 169 168 167 166 165 164 163 162 160 159 157 155 154 152 151 150 147 146 144 143 142 141 140 137 135 133 131 130 130 129 127 125 124 123 122 121 121 120 120 120 120 120 119 117 115 114 113 111 110 110 110 109 107 106 105 104 103 102 100 100 99 98 97 96 95 94 92 90 88 86 84 82 81 81 80 79 76 74 73 70 67 66
172 172 171 171 170 169 168 167 166 165 163 162 161 159 158 156 154 153 152 150 148 146 144 143 142 142 141 140 138 137 136 135 134 133 131 129 127 126 124 123 121 121 121 122 121 120 119 118 117 115 113 112 112 111 111 109 108 107 106 105 104 103 102 101 100 99 98 97 95 93 90 87 85 83 82 81 80 79 78 76 74 71 68 66 66
168 170 170 171 170 170 169 168 168 167 166 165 164 163 161 160 158 156 155 153 151 149 148 146 144 143 142 141 140 140 139 139 138 137 135 134 132 130 129 127 125 123 123 123 123 123 122 122 121 119 118 116 115 114 114 112 111 109 109 107 106 105 104 103 102 101 99 98 96 93 89 87 85 83 82 81 80 79 78 76 73 70 66 65 65
162 164 166 167 168 168 168 168 168 167 167 167 166 165 164 163 161 160 158 156 155 153 152 150 148 146 145 143 142 141 141 141 140 140 139 137 136 134 132 131 129 127 125 125 125 125 124 123 123 122 121 120 118 117 116 115 113 111 110 109 108 106 104 103 102 101 100 98 95 93 90 88 86 84 83 82 80 79 78 75 72 69 66 66 67
156 158 160 161 163 164 165 165 166 165 165 165 165 164 164 163 162 161 159 158 157 156 154 153 151 150 148 147 145 144 143 143 142 142 141 140 139 137 136 135 133 130 128 127 127 126 126 125 124 123 123 122 121 119 118 117 115 113 112 111 109 107 105 104 102 101 99 97 96 93 91 89 87 85 83 82 80 78 77 75 74 71 69 68 69
151 152 154 155 156 157 158 159 160 161 161 161 161 161 161 161 160 160 159 158 157 156 155 154 154 153 151 150 149 148 147 146 145 145 144 143 141 140 139 138 136 134 131 130 129 128 127 126 125 124 124 123 122 121 120 118 116 114 113 111 109 107 105 103 102 101 99 97 95 93 91 89 86 84 83 82 80 77 76 75 74 73 71 70 70
146 147 148 149 150 151 152 153 153 154 155 155 155 156 156 156 156 156 156 155 155 154 154 153 153 153 152 152 151 150 150 149 148 147 146 145 144 142 141 140 138 136 134 132 131 130 129 128 126 125 124 124 123 121 120 119 117 115 113 111 109 107 105 103 102 100 98 97 94 92 90 88 86 85 84 82 80 78 76 75 74 73 71 71 72
142 142 143 144 145 146 146 147 147 148 149 149 150 150 151 151 151 151 151 151 151 150 150 150 150 150 150 149 149 148 148 148 148 147 147 146 145 144 143 141 139 137 134 133 131 131 130 128 126 125 125 124 123 122 120 119 117 115 114 111 109 108 106 104 102 100 99 97 95 93 91 89 88 86 84 83 81 78 76 75 73 71 70 70 70
140 140 140 140 140 140 141 141 142 142 143 144 144 145 145 146 146 146 146 146 146 146 146 146 146 146 146 146 146 145 145 145 146 145 145 145 144 144 143 141 139 136 134 132 130 130 129 128 126 125 124 124 123 122 121 119 118 116 114 112 110 109 107 106 104 102 100 98 96 94 92 90 88 86 84 83 80 77 74 71 69 69 70 70 70
139 138 138 138 138 137 137 137 137 137 138 139 139 139 140 140 141 141 141 141 141 141 142 142 142 143 143 143 143 143 143 143 143 143 143 143 142 142 141 139 137 135 132 130 129 128 128 127 125 124 123 123 123 122 121 120 118 116 114 112 110 109 108 106 104 102 101 99 96 94 92 90 87 85 84 82 80 77 74 71 70 71 71 71 71
137 137 137 137 137 136 135 134 134 134 134 134 135 135 134 134 134 135 136 136 136 136 136 136 137 138 139 140 140 140 140 141 141 141 141 140 140 140 139 137 135 133 131 129 128 127 126 125 124 123 122 122 122 122 121 119 117 115 113 112 110 109 107 106 104 102 101 99 97 94 92 90 87 85 84 83 81 78 76 74 73 72 71 69 69
135 135 135 135 135 135 134 133 132 132 132 132 132 132 131 130 130 130 130 130 131 131 131 131 131 132 133 134 135 136 137 137 138 138 138 138 138 138 137 135 133 131 129 128 127 125 125 124 123 122 121 120 121 121 120 118 116 114 112 111 110 108 107 106 104 102 101 99 96 94 92 89 87 86 85 84 82 79 76 74 72 71 69 67 66
132 133 133 133 133 132 132 132 132 131 130 130 130 130 129 128 127 126 126 126 126 126 126 126 126 126 126 127 129 129 131 132 133 133 134 134 134 134 133 132 130 128 127 126 125 124 123 122 121 120 120 119 120 120 119 117 115 113 112 111 109 108 107 106 105 102 100 98 96 94 92 89 87 86 86 85 83 80 77 74 71 69 69 68 66
128 129 130 130 130 130 130 130 130 129 129 129 129 129 128 127 126 124 124 124 124 123 122 121 121 121 121 121 122 122 123 125 126 127 128 129 129 129 129 127 126 125 124 123 122 121 120 119 119 118 118 118 118 119 118 116 114 112 111 109 107 107 107 106 103 101 99 97 94 92 90 88 87 86 87 86 83 80 78 76 73 71 70 68 66
125 126 126 127 127 127 127 127 127 127 127 128 128 128 127 126 124 123 122 122 122 121 120 119 118 118 118 117 117 117 117 118 119 120 121 122 123 123 123 122 121 121 120 119 118 118 117 116 116 116 116 116 116 117 117 115 113 111 109 107 106 106 105 103 101 99 97 94 92 90 89 88 87 86 87 86 84 80 78 76 75 73 71 67 64
122 122 123 123 124 124 124 124 124 124 125 125 126 126 126 125 124 122 121 121 120 120 119 117 116 116 116 115 114 114 113 113 114 115 115 116 117 117 116 116 116 116 115 114 114 114 113 113 113 113 113 113 114 115 114 113 110 108 107 106 105 104 102 100 98 96 93 91 89 87 86 86 86 86 86 85 82 79 77 76 74 73 70 65 61
119 119 120 120 121 121 121 121 121 121 121 122 123 124 124 124 123 121 120 119 118 118 117 115 114 114 114 113 113 112 111 110 110 110 111 111 112 112 111 111 110 110 109 108 108 108 108 109 109 109 110 110 110 111 111 109 107 105 104 103 102 100 98 96 94 91 89 87 86 85 84 84 84 84 84 82 80 77 75 74 72 70 67 62 60
117 117 117 117 118 118 118 119 119 119 119 119 119 120 121 121 121 120 118 117 116 115 114 113 112 112 112 111 110 110 110 109 108 107 108 108 108 108 107 107 106 105 104 103 103 103 103 103 104 105 106 107 107 107 107 105 103 101 100 99 97 95 93 92 89 87 85 83 83 82 82 82 83 82 81 78 75 73 71 70 68 65 62 59 59
116 115 115 115 116 116 116 116 116 117 116 116 116 117 118 119 119 118 117 116 115 114 112 111 109 109 109 109 108 108 108 107 107 107 106 106 105 105 104 103 103 102 100 100 99 99 99 99 99 101 102 103 103 103 103 101 99 97 96 94 92 89 87 86 84 82 81 81 81 81 81 81 80 79 76 73 71 69 67 64 62 60 58 58 58
115 115 115 115 115 115 115 115 115 115 115 115 115 115 116 116 116 115 115 114 113 112 111 109 107 106 106 107 107 106 106 106 106 106 105 104 103 103 102 101 100 99 97 96 96 95 95 95 96 97 98 99 99 98 98 97 95 93 91 89 87 84 82 81 80 79 78 79 79 79 79 78 76 74 71 69 67 64 62 60 58 57 57 58 58
115 115 114 114 114 114 115 115 114 114 114 114 114 114 114 114 114 113 112 112 111 110 109 107 105 104 104 104 104 105 105 105 105 104 104 103 102 101 100 99 98 97 95 94 93 92 92 93 93 94 95 95 94 94 94 93 92 89 87 84 83 81 80 79 78 77 77 77 76 76 76 74 72 69 67 65 62 60 58 57 56 57 57 58 58
113 114 114 113 113 114 114 114 114 114 113 113 113 113 113 113 113 112 110 109 109 108 107 106 104 103 102 103 102 103 103 104 104 103 102 101 100 100 99 98 97 95 94 92 91 90 90 91 91 92 92 91 90 90 89 88 87 85 83 81 80 79 78 77 76 75 74 74 74 73 72 70 68 66 63 61 59 58 57 57 57 57 58 59 59
111 111 111 112 112 113 114 114 114 114 114 113 113 113 113 113 112 111 110 108 107 106 105 104 103 101 101 101 101 101 102 102 102 102 101 100 99 98 98 97 96 95 93 92 90 88 88 88 89 89 88 87 86 85 85 84 82 82 81 80 79 78 77 76 74 73 73 72 72 71 70 68 67 65 62 60 59 58 58 58 58 58 59 60 61
107 108 109 110 110 111 112 113 113 114 114 114 114 113 113 113 112 111 110 108 106 105 103 102 101 100 100 100 100 100 100 100 100 100 100 100 99 98 97 96 95 94 93 92 90 87 87 87 86 86 85 84 83 82 81 81 80 80 79 79 78 77 76 75 74 72 72 71 70 70 69 68 66 64 61 60 59 59 59 59 59 59 61 62 61
101 103 105 106 107 108 110 110 111 111 112 113 113 113 113 113 112 111 110 109 107 105 103 101 100 99 99 99 99 98 98 98 98 98 99 99 98 97 96 96 95 94 93 92 90 88 87 86 85 84 83 81 80 80 79 79 78 78 78 78 77 76 76 75 74 72 71 71 70 70 69 68 66 64 61 60 60 59 59 58 59 59 60 61 60
95 97 99 100 101 103 105 107 108 109 109 110 111 112 112 113 112 111 110 109 108 105 103 102 100 99 98 98 97 96 96 97 97 97 97 97 97 96 96 95 95 94 93 92 90 88 88 87 85 83 81 80 79 78 78 78 78 78 77 77 76 76 76 75 75 73 72 72 71 71 70 69 67 65 62 61 60 58 58 58 58 59 60 61 60
90 92 93 94 95 97 99 102 104 105 106 107 108 109 110 111 111 111 110 109 108 106 104 102 101 99 98 97 96 95 95 95 95 95 95 96 96 95 95 95 95 94 93 91 90 89 89 88 86 84 82 79 78 78 77 77 77 77 77 76 76 76 77 77 76 75 74 73 72 71 70 69 67 65 62 60 59 58 59 60 60 60 61 61 61
87 89 90 91 92 92 94 97 99 101 102 103 104 105 107 108 109 109 109 109 108 106 104 103 101 100 98 97 95 94 94 94 94 94 94 95 95 94 94 94 94 94 93 91 90 90 90 89 87 85 83 80 78 77 76 76 76 76 76 76 77 77 78 78 77 76 75 73 72 71 70 69 67 64 61 59 59 59 60 61 62 62 64 64 64
84 86 87 89 89 90 91 93 95 96 97 98 99 101 102 104 105 106 107 107 107 106 105 103 101 100 99 97 96 95 94 94 93 93 94 94 94 94 93 94 94 94 93 91 91 90 90 89 88 87 85 82 80 78 76 76 75 75 76 77 77 77 78 78 78 76 75 74 72 71 70 69 66 64 61 60 60 61 62 63 64 66 67 68 67
82 83 85 86 87 88 89 91 92 93 93 94 95 96 97 98 100 102 103 104 105 105 104 102 101 99 99 97 96 95 95 94 93 93 93 93 93 93 93 93 93 93 92 91 90 90 90 89 88 87 86 83 81 78 77 76 76 76 77 77 78 78 78 78 78 78 76 74 73 72 70 69 67 64 63 62 63 64 65 67 68 69 69 69 67
81 82 83 84 84 86 87 89 90 90 91 91 91 92 92 93 95 96 98 100 101 101 102 101 100 99 98 97 96 96 95 95 94 93 93 93 93 93 93 92 92 92 91 91 90 90 89 89 88 88 86 84 82 79 78 77 76 77 78 78 78 79 79 80 80 79 78 76 74 73 71 70 68 67 66 66 67 68 69 70 70 71 70 69 67
80 81 81 82 82 83 85 87 88 88 88 88 88 88 88 88 89 91 93 95 96 97 98 98 98 97 97 97 96 96 96 95 95 94 94 94 94 93 93 92 91 91 91 91 90 89 89 89 88 88 86 85 83 80 79 77 77 77 78 78 79 80 81 81 82 81 80 78 76 74 73 72 70 70 69 70 71 71 72 72 72 71 70 69 67
78 78 79 80 80 81 82 84 85 85 84 85 85 86 85 85 85 86 88 90 91 93 94 95 95 95 95 95 96 96 96 96 95 95 95 95 94 94 93 92 91 91 91 90 90 89 89 88 88 88 87 85 84 81 79 78 78 78 78 79 79 80 82 82 82 82 81 79 78 76 75 74 73 72 72 73 73 74 74 73 72 71 70 69 68
75 76 76 77 78 79 81 82 82 81 81 82 82 83 83 82 82 82 83 85 87 88 90 91 92 92 92 93 94 95 96 96 96 96 96 95 95 95 94 93 92 91 90 90 90 89 89 88 88 87 87 86 84 82 80 79 78 78 78 78 79 81 82 82 83 83 82 81 80 79 78 77 77 76 76 76 76 76 76 75 74 72 71 70 69
73 74 74 75 77 79 81 81 81 79 78 78 79 79 80 80 79 79 80 81 83 85 86 87 89 89 89 90 92 94 95 96 96 96 96 96 96 96 95 94 93 91 90 90 90 89 89 88 88 87 87 86 85 84 81 80 78 78 78 78 79 80 81 82 83 84 84 83 83 82 81 80 80 79 79 79 79 79 78 77 75 73 72 71 69
72 72 73 75 77 79 81 81 80 78 77 76 76 76 77 77 78 78 78 78 80 82 83 84 86 87 87 88 90 92 94 95 95 96 97 97 97 96 96 95 93 92 91 90 89 89 89 88 88 88 87 87 86 85 83 81 79 79 79 79 80 80 81 82 83 84 85 85 85 85 84 83 82 81 81 81 80 80 79 77 76 74 73 72 71
70 72 73 75 77 80 81 81 79 78 76 75 74 74 74 75 76 76 76 76 77 79 80 82 83 84 85 86 88 90 92 93 94 95 96 97 97 97 96 95 94 93 92 91 90 89 89 89 88 88 88 88 87 86 84 82 81 80 79 80 80 81 81 82 83 84 85 86 86 86 85 84 84 84 83 82 81 79 78 77 76 75 73 73 72
70 72 74 76 78 80 80 80 79 77 76 75 74 73 73 73 74 74 74 74 75 77 78 79 81 82 83 84 86 88 89 91 93 95 96 96 97 97 97 96 95 94 93 91 90 90 89 89 89 88 88 88 88 87 86 84 82 81 80 80 81 81 82 82 83 84 85 86 87 87 86 86 86 86 85 83 81 80 78 77 76 75 74 73 73
72 74 76 78 79 79 80 80 79 77 75 74 73 73 73 73 73 73 73 73 74 75 77 78 79 80 81 82 84 85 87 89 91 93 94 95 96 96 96 96 96 95 94 92 91 91 90 90 89 89 89 89 89 88 87 86 84 82 82 81 81 82 82 82 83 84 85 86 87 87 87 88 88 87 85 83 82 80 79 78 77 76 75 74 74
74 76 77 78 79 79 79 79 79 77 75 74 73 72 72 73 73 73 72 72 73 74 75 77 78 79 80 81 82 83 85 87 89 91 93 94 95 96 96 96 96 96 95 93 92 91 91 90 90 90 89 89 89 89 88 87 86 84 83 82 82 82 82 82 83 84 84 86 87 88 88 88 88 87 85 84 82 81 80 78 77 77 76 75 74
74 75 77 77 78 78 79 79 79 78 76 74 73 72 72 72 72 72 72 72 72 73 74 75 76 77 78 79 80 81 83 85 87 89 91 93 94 95 96 96 96 96 96 94 93 92 91 91 90 90 90 90 90 89 89 88 87 85 84 83 82 82 82 82 82 83 84 85 87 88 88 88 88 86 85 84 83 82 80 79 79 78 77 76 75
72 74 75 76 77 78 78 78 78 78 77 75 73 72 71 71 71 72 72 72 72 72 73 74 75 76 77 78 79 80 81 83 85 87 89 91 93 94 96 96 96 96 96 95 94 93 92 92 91 91 91 90 90 90 90 89 88 86 85 83 83 82 82 82 82 83 84 86 87 88 88 88 88 87 86 86 85 84 82 81 80 80 79 78 77
71 72 74 75 76 77 77 77 77 77 76 75 74 72 71 70 70 71 72 72 72 71 72 73 74 75 76 77 78 79 80 81 83 85 87 89 91 93 95 96 96 96 96 96 95 94 93 92 92 92 91 91 91 91 91 90 89 88 86 85 83 83 82 82 82 83 84 85 86 87 88 88 88 88 87 87 87 86 84 83 82 81 80 79 78
70 71 72 73 74 75 76 76 76 76 75 75 73 72 71 70 69 70 71 71 71 71 71 72 73 74 75 76 77 78 78 79 81 83 85 87 90 92 93 95 95 96 96 96 95 94 94 93 93 92 92 92 92 92 91 91 90 89 87 86 84 83 82 82 82 82 83 84 85 86 87 88 88 88 88 88 88 87 86 85 84 83 82 81 80
68 70 71 72 73 74 74 75 75 75 75 74 73 71 70 69 68 68 69 70 70 70 70 70 71 72 74 75 76 77 77 78 79 81 83 85 87 89 92 93 94 95 96 96 95 95 94 93 93 93 93 92 92 92 92 91 91 90 89 87 86 84 83 82 82 82 82 83 84 85 86 87 88 88 88 88 88 88 87 86 85 84 83 82 82
Wind_Direction
249 250 250 250 250 249 249 249 250 250 250 250 251 252 253 253 253 254 254 253 254 256 258 260 261 261 260 260 260 260 260 261 261 262 263 264 264 265 266 266 267 268 270 271 272 274 275 276 278 279 280 280 281 281 282 282 283 284 285 286 287 288 289 290 291 292 292 293 295 296 297 298 298 299 299 300 300 301 301 301 302 304 306 308 310
248 249 250 250 250 250 250 250 250 250 250 251 251 252 253 254 254 254 255 255 256 257 259 260 261 261 260 260 261 261 262 262 263 264 265 266 266 267 267 268 269 270 271 272 273 274 275 276 278 280 280 281 282 282 282 282 283 283 283 284 285 287 288 288 289 290 290 291 293 294 295 296 296 297 297 298 298 299 299 299 301 302 304 307 308
248 249 249 250 250 250 250 250 250 250 250 250 251 251 252 253 253 254 254 255 256 257 257 258 259 260 260 260 261 261 262 262 263 264 265 267 267 268 268 269 270 271 272 273 273 274 276 277 278 279 279 280 280 280 281 281 282 282 282 283 284 285 286 286 287 288 289 290 291 292 293 294 294 295 295 296 296 297 297 298 299 300 302 304 304
248 249 249 250 250 250 250 250 251 251 251 251 251 251 252 252 252 253 254 255 256 256 257 257 258 258 259 259 260 260 261 261 261 262 263 264 266 267 268 269 270 271 271 272 273 273 275 275 276 276 277 277 278 278 278 279 279 279 280 282 283 283 284 285 286 286 287 288 289 291 292 292 292 292 293 294 294 295 295 296 297 298 300 302 302
249 249 249 249 250 250 250 250 251 251 251 251 251 252 252 252 253 253 254 255 256 257 257 257 257 258 258 258 258 259 260 260 261 261 261 262 263 264 265 267 268 269 270 270 271 271 272 273 273 274 274 275 276 276 276 277 277 278 279 280 281 282 283 284 284 285 286 287 288 289 290 290 291 291 291 292 292 293 294 295 295 296 297 299 300
249 249 249 249 250 250 250 251 251 252 252 253 253 253 253 253 253 254 254 255 255 256 256 257 257 257 257 257 257 258 259 259 260 260 261 261 262 262 263 264 265 266 267 268 269 269 270 271 271 272 273 273 274 274 275 275 276 277 278 279 280 281 282 282 283 284 285 286 286 288 289 289 289 289 290 291 292 292 293 294 294 295 296 298 298
248 249 249 250 250 250 251 251 252 252 253 253 254 254 254 254 254 254 254 255 255 255 255 256 256 257 257 257 258 258 258 259 260 260 261 261 262 262 263 263 264 265 265 266 267 268 269 270 271 271 272 272 272 273 273 274 275 276 277 278 279 280 281 281 282 283 284 284 285 286 287 288 288 288 289 290 291 292 293 293 294 294 295 296 296
248 248 249 249 250 250 251 251 251 252 253 253 254 254 254 254 255 255 255 255 255 255 255 255 255 256 256 257 257 258 258 259 260 260 261 261 262 262 263 263 263 264 265 265 266 267 268 269 270 271 271 271 271 272 272 273 274 275 276 277 278 279 279 280 281 282 282 283 284 285 286 286 287 287 288 289 289 290 291 292 292 292 293 294 292
248 248 248 249 249 250 250 251 251 252 252 253 253 254 254 255 255 255 255 255 255 255 255 255 255 255 256 256 257 257 258 258 259 260 260 261 261 262 262 263 263 263 264 265 266 266 268 269 269 270 270 271 271 272 272 273 273 274 275 275 276 277 278 279 279 280 281 282 283 284 285 285 286 286 287 287 288 289 289 290 290 291 291 290 289
248 249 249 249 249 250 250 251 251 252 252 253 253 254 254 254 255 255 255 255 255 255 255 255 255 255 255 256 256 256 257 257 258 259 259 260 261 261 262 263 263 263 264 264 265 266 266 267 268 269 269 270 270 271 271 272 272 273 273 274 275 276 276 277 278 279 280 281 282 283 283 284 285 285 286 286 287 288 288 288 288 288 287 287 287
248 248 249 249 249 250 250 251 251 252 252 252 253 253 254 254 254 254 255 255 255 255 255 255 255 255 255 255 255 256 256 256 257 258 258 259 260 260 261 262 262 262 263 263 264 264 265 266 266 267 268 269 269 270 270 271 271 272 272 273 274 274 275 276 276 277 278 279 281 282 282 283 284 285 285 286 286 287 287 287 287 287 286 285 285
248 249 249 249 249 250 250 250 251 251 252 252 252 253 253 254 254 254 254 255 255 255 255 255 255 255 255 255 256 256 256 256 257 257 258 258 259 259 260 261 261 262 262 262 263 263 264 264 265 266 266 267 268 268 269 269 270 270 271 271 272 273 273 274 275 276 277 278 279 280 281 282 283 284 284 285 285 286 286 287 287 287 285 284 284
249 249 249 249 249 250 250 250 251 251 251 252 252 252 253 253 253 254 254 254 255 255 255 255 255 255 255 256 256 256 256 257 257 257 257 258 258 259 259 260 260 261 261 262 262 262 263 263 263 264 265 265 266 267 267 268 268 269 269 270 270 271 272 273 274 275 276 277 278 279 279 280 281 282 282 283 283 284 285 286 287 286 285 284 284
249 249 249 249 250 250 250 250 250 251 251 251 251 252 252 252 253 253 253 254 254 254 255 255 255 255 256 256 256 256 256 257 257 257 257 258 258 258 259 259 260 260 260 261 261 261 262 262 262 263 264 264 265 266 266 267 267 268 268 269 270 270 271 272 273 274 275 276 277 277 278 278 279 280 281 281 282 283 284 285 286 285 283 283 284
249 250 250 249 249 249 250 250 250 250 251 251 251 251 251 252 252 252 252 253 253 253 254 254 254 255 255 255 256 256 256 256 256 257 257 257 258 258 258 259 259 259 259 260 260 260 261 262 262 262 263 264 264 265 266 266 266 267 268 268 269 270 270 271 272 273 274 275 275 276 277 277 278 279 279 280 280 281 283 284 283 282 281 281 283
249 249 250 250 250 249 249 250 250 250 250 251 251 251 251 251 251 252 252 252 252 252 252 252 253 254 254 255 255 255 255 256 256 256 257 257 257 257 258 258 258 258 259 259 259 259 260 260 261 262 262 263 264 264 265 265 266 267 267 268 268 269 270 271 272 273 273 274 274 275 276 277 277 277 277 278 278 279 280 280 280 279 280 281 282
248 249 249 249 250 250 250 250 250 250 250 250 250 251 251 251 251 251 251 251 252 252 251 251 251 252 253 253 254 254 255 255 255 256 256 257 257 257 258 258 258 258 258 258 258 258 259 259 260 260 261 262 263 263 264 265 265 266 266 267 268 268 269 270 271 272 272 272 273 274 275 276 276 276 276 276 277 277 278 279 279 279 279 280 281
248 248 249 249 249 250 250 250 250 250 250 250 250 250 250 250 250 250 251 251 251 251 251 251 251 251 251 252 252 253 253 254 255 255 256 256 256 257 257 258 258 258 258 258 258 258 258 258 259 259 260 261 261 262 263 263 264 265 265 266 267 268 268 269 270 270 270 271 272 274 274 275 275 275 275 275 276 277 277 278 278 278 278 278 280
248 248 249 249 249 249 250 250 250 250 250 250 250 250 250 250 250 250 250 250 251 251 251 251 251 251 251 251 251 251 252 253 253 254 254 255 256 256 257 257 257 258 258 258 258 258 258 258 258 259 259 259 260 261 261 262 263 263 264 265 266 267 267 268 268 269 269 271 272 273 273 274 273 273 273 274 275 276 277 277 276 276 276 277 279
248 248 249 249 249 249 249 250 250 250 250 251 251 251 250 250 249 249 249 250 250 250 250 250 250 251 250 250 250 250 251 251 252 252 253 254 254 255 256 256 257 257 257 257 258 258 258 258 258 258 258 258 259 260 260 261 261 262 263 263 264 265 265 266 267 268 269 270 271 272 272 272 272 272 272 272 273 274 275 275 275 275 276 278 279
249 249 249 249 249 249 249 249 250 250 250 250 251 251 251 250 250 249 249 249 249 249 249 249 249 250 250 250 250 250 250 250 251 252 252 253 253 254 254 255 256 256 256 257 257 257 257 257 257 257 257 258 258 259 259 260 260 261 262 262 263 263 264 265 266 267 268 269 270 271 271 271 271 270 271 271 272 272 273 274 275 275 276 277 278
249 249 249 250 250 250 250 250 250 250 250 250 251 251 251 251 250 249 249 248 248 248 248 248 249 249 249 250 250 250 249 249 250 250 251 252 253 253 253 254 254 255 255 256 256 256 257 257 257 257 257 257 257 258 258 259 259 260 261 261 262 262 264 265 265 266 267 268 269 269 270 269 269 269 270 270 271 271 272 273 273 274 276 276 275
248 249 249 249 250 250 250 250 250 250 250 250 250 251 251 251 251 250 249 249 248 248 248 248 248 248 248 249 249 249 249 249 249 249 250 251 252 252 253 253 253 254 254 254 255 255 255 256 256 256 256 256 256 257 257 258 258 259 259 260 261 262 263 264 264 266 266 267 268 268 268 268 268 268 269 270 271 271 272 272 272 273 274 274 271
248 248 249 249 249 250 250 250 250 250 250 250 250 250 250 251 251 251 250 250 249 248 248 247 247 247 247 248 248 248 249 249 249 249 249 249 250 251 251 252 252 253 253 253 254 254 254 255 255 255 255 255 255 256 256 257 257 257 258 259 260 261 262 263 264 264 265 266 266 266 266 266 267 267 268 269 270 271 271 271 271 271 271 269 268
247 247 248 248 249 249 249 250 250 250 250 250 250 249 250 250 250 250 250 250 250 249 248 247 246 246 246 247 247 247 247 248 248 248 248 248 249 249 250 250 251 252 252 252 253 253 254 254 254 254 254 254 254 255 255 256 256 256 257 258 258 259 260 261 262 263 263 264 264 264 264 265 265 266 268 268 269 269 269 268 268 268 267 266 266
246 246 246 247 247 248 248 248 249 249 250 250 250 250 249 249 249 249 249 249 249 249 249 248 247 246 246 246 246 246 246 247 247 247 247 247 248 248 249 249 250 250 251 251 252 252 253 253 253 253 253 253 253 254 254 255 255 255 255 256 257 258 258 259 260 261 261 261 262 262 263 263 264 265 266 266 266 266 266 265 264 264 264 264 264
246 246 245 245 246 246 247 247 247 248 248 249 249 249 249 249 249 249 249 249 249 249 248 248 247 246 245 245 245 245 245 245 246 246 246 247 247 247 247 248 248 249 249 250 250 251 251 252 252 252 252 252 253 253 253 253 254 254 254 255 255 256 256 256 257 258 259 260 260 261 262 262 263 263 263 263 262 262 261 261 260 261 261 262 262
245 245 245 245 245 245 245 246 246 246 247 247 248 248 249 249 249 249 248 248 248 248 248 247 247 246 245 244 244 244 244 244 245 245 246 246 246 246 246 246 247 247 247 248 248 249 249 250 250 251 251 252 252 252 252 253 253 253 252 252 253 253 254 254 255 256 257 258 259 259 260 260 259 259 258 258 257 257 257 257 258 259 260 260 261
245 245 245 245 245 244 244 245 245 245 246 246 246 247 247 248 248 248 248 248 247 247 247 247 246 245 245 244 243 243 243 243 243 244 244 245 245 245 245 245 245 245 245 246 246 246 247 248 249 250 251 251 251 251 251 251 250 250 249 249 250 251 252 252 253 254 254 255 256 256 256 256 255 255 255 254 253 253 254 255 256 257 258 259 260
244 244 244 244 244 244 244 244 244 244 244 245 245 246 246 246 247 247 248 247 247 247 246 246 245 245 244 244 243 242 242 242 242 242 243 243 243 244 244 244 244 244 244 244 244 244 245 247 248 249 249 249 249 249 249 248 248 247 247 247 247 248 249 250 251 251 252 252 253 253 253 253 253 253 253 252 251 251 252 253 253 255 256 257 259
244 244 244 244 244 244 245 244 244 244 244 244 244 244 245 246 246 246 246 246 246 246 246 245 245 244 244 243 242 242 241 241 240 241 241 242 242 242 242 242 243 243 243 242 242 243 243 245 246 247 247 248 248 247 247 247 246 245 245 245 245 246 247 248 248 249 249 250 250 250 250 250 250 250 250 249 250 251 252 252 253 254 255 257 259
244 244 244 244 244 244 244 245 244 244 244 243 243 243 244 244 245 245 245 246 245 245 245 245 244 243 243 242 242 241 241 240 240 239 240 240 240 241 241 241 241 241 241 241 241 241 241 242 244 245 246 246 246 246 245 245 244 244 243 243 244 244 245 246 246 247 247 247 247 248 248 248 249 249 248 248 248 250 251 252 253 254 255 258 259
244 244 244 244 244 244 244 244 244 244 243 243 243 243 243 243 244 244 244 245 245 244 244 243 243 243 242 242 241 241 240 240 239 239 239 239 239 239 239 240 240 240 240 240 240 240 240 240 241 243 243 244 244 244 244 244 243 242 242 242 242 242 243 244 244 245 245 245 246 247 248 248 248 248 247 247 247 248 249 251 253 254 256 257 257
244 244 244 244 244 244 244 244 244 243 243 243 242 242 242 242 243 243 243 244 244 244 243 242 242 242 241 241 241 240 240 239 239 238 238 238 238 238 238 238 238 239 239 238 238 238 238 239 239 240 241 242 242 243 243 242 242 242 241 241 240 240 241 243 243 244 244 245 246 246 247 248 247 247 246 246 246 246 248 250 252 253 254 254 254
243 244 244 244 244 244 244 244 244 244 243 243 242 242 242 242 242 242 242 243 243 243 243 242 241 241 240 240 239 239 239 238 238 238 237 237 237 236 236 236 237 237 237 237 237 237 237 237 238 238 239 240 241 241 241 241 240 240 239 239 239 239 240 242 243 243 244 244 245 246 246 246 246 245 244 243 244 246 247 249 250 250 251 252 254
243 244 244 244 244 244 244 244 244 244 244 243 243 242 242 242 242 242 242 242 242 242 242 242 241 240 240 239 238 238 238 237 237 237 237 237 236 236 235 235 235 236 236 236 236 236 236 236 236 237 238 239 239 240 240 240 239 238 237 237 237 237 238 240 242 243 243 243 244 244 245 245 244 243 242 242 242 244 246 247 248 249 251 253 255
243 243 243 244 244 244 244 244 244 244 244 244 243 243 242 241 241 241 242 242 242 242 242 241 241 240 239 238 237 237 236 236 236 236 236 236 236 235 235 234 234 234 235 235 235 235 235 235 235 236 236 237 238 239 239 239 238 237 236 236 236 235 236 237 239 241 243 243 242 243 243 243 243 242 242 241 242 243 244 246 248 250 252 254 256
243 243 243 243 244 244 244 245 245 245 244 244 244 243 242 241 241 241 241 241 241 241 241 241 240 239 239 238 237 236 235 235 235 235 235 235 235 235 235 234 233 233 233 234 234 234 234 234 234 234 235 236 236 237 238 238 238 237 236 235 234 234 234 235 236 238 240 242 242 242 242 242 242 242 242 243 243 244 245 247 249 252 253 254 255
242 242 243 243 244 244 245 245 245 245 245 245 245 244 244 242 241 240 240 240 240 240 240 240 239 239 238 237 236 235 234 234 233 233 233 234 234 234 234 234 233 232 232 233 233 233 233 233 233 233 234 234 235 236 237 237 237 237 236 235 235 234 234 234 235 236 237 239 240 241 241 241 241 241 241 243 244 246 247 248 250 251 252 253 254
242 242 242 243 244 244 245 245 246 245 245 245 245 245 245 244 242 241 240 240 240 239 239 239 238 238 237 236 235 235 234 233 232 232 232 232 233 233 233 233 233 232 232 232 232 232 232 233 233 233 233 233 234 234 235 236 237 237 236 236 235 235 234 234 234 235 235 236 238 239 240 240 239 239 240 241 242 245 247 249 250 251 251 252 253
242 242 242 242 243 243 244 244 245 245 244 244 245 245 245 244 243 242 240 239 239 239 238 238 237 237 236 235 234 234 233 232 231 231 231 231 231 232 232 232 232 232 231 231 231 231 232 232 232 232 232 232 232 233 234 235 235 236 236 236 235 235 235 234 234 234 235 235 236 237 238 239 239 240 240 240 241 243 245 248 249 250 251 252 253
241 241 241 240 241 242 242 243 243 243 243 243 243 243 243 243 243 242 240 239 239 238 238 237 237 236 235 234 233 233 232 232 231 230 230 230 230 231 231 231 231 231 231 230 230 231 231 231 231 231 231 231 231 232 233 234 234 235 235 234 234 234 234 234 234 234 234 235 235 237 238 239 239 240 240 241 242 243 245 247 249 250 251 252 253
240 240 239 239 239 240 241 242 242 242 241 241 241 241 241 242 241 241 240 239 238 238 237 237 236 236 235 233 233 232 231 231 231 230 229 229 229 229 230 230 231 231 230 230 229 230 230 230 231 231 231 230 230 231 232 233 234 234 234 234 234 234 233 233 233 233 233 234 235 236 237 238 239 240 241 241 242 243 245 246 248 249 250 251 252
238 238 238 238 238 239 240 241 241 241 240 240 239 239 239 240 240 239 239 238 238 237 237 236 236 236 234 233 232 232 231 231 230 230 229 229 229 229 229 229 230 230 230 229 229 229 229 229 230 230 230 230 230 230 231 231 232 233 234 234 234 234 233 233 232 232 232 233 234 236 237 238 239 240 241 242 242 243 245 246 247 248 249 250 251
237 237 237 238 238 239 240 241 241 241 240 239 238 238 238 238 238 238 238 237 236 236 236 236 235 235 234 233 232 231 231 230 230 229 229 228 228 228 228 228 229 229 229 229 229 228 228 229 229 229 229 230 230 230 230 231 231 232 233 233 233 233 233 233 232 232 231 232 233 234 236 237 238 239 240 241 242 243 244 245 246 247 248 249 250
236 237 237 238 238 239 240 240 241 241 240 239 238 237 237 237 237 237 237 236 235 235 235 235 235 234 234 233 232 231 230 230 229 228 228 228 227 227 227 228 228 229 229 229 228 228 228 228 228 228 229 229 229 229 230 230 231 232 233 233 233 233 233 233 233 233 232 232 233 233 235 236 237 239 240 241 242 243 244 245 246 247 248 249 250
236 237 238 238 239 239 240 241 241 242 241 240 239 238 237 236 236 237 237 236 235 234 234 235 235 234 234 233 232 231 230 229 229 228 228 227 227 227 227 227 227 228 228 228 228 228 227 227 227 228 228 228 229 229 229 230 231 231 232 233 233 233 233 233 233 233 232 232 233 233 234 235 237 238 239 240 241 242 243 244 245 246 247 248 249
238 238 239 239 240 240 241 241 242 242 242 241 240 239 237 236 236 236 237 236 235 234 234 234 234 234 234 233 232 231 230 229 228 228 227 227 227 226 227 227 227 227 227 228 228 227 227 227 227 227 227 228 228 228 229 229 230 231 232 233 233 234 234 233 233 233 232 232 233 233 234 235 236 237 238 239 240 240 241 242 243 244 246 247 248
239 240 240 240 241 241 241 242 242 243 243 243 242 241 239 238 237 236 237 236 236 235 234 234 234 234 234 233 233 232 230 229 228 228 227 227 226 226 226 226 226 226 227 227 227 227 227 226 226 227 227 227 228 228 228 229 229 230 231 232 233 233 234 234 234 233 233 233 233 233 234 235 235 236 237 238 239 240 240 241 242 243 245 246 247
240 240 240 241 241 242 242 242 243 243 244 244 243 242 241 240 238 237 237 237 236 236 235 234 233 234 234 234 233 232 231 229 228 228 227 226 226 226 226 226 226 226 226 227 227 227 227 226 226 226 227 227 227 228 228 228 229 230 231 232 232 233 233 233 234 234 234 234 234 234 234 234 235 236 237 238 239 240 241 241 242 243 244 245 246
239 240 240 241 241 242 242 243 243 244 244 244 244 243 242 241 240 239 238 237 237 236 235 234 234 233 234 234 233 233 232 231 229 228 227 226 226 225 225 225 225 225 226 226 226 227 226 226 226 226 226 226 227 227 227 228 228 229 230 231 232 233 233 233 233 234 234 234 234 234 234 235 235 236 236 237 239 240 241 242 243 244 244 245 246
Height
10530 10535 10540 10547 10552 10558 10564 10570 10576 10581 10587 10592 10597 10602 10606 10611 10616 10620 10625 10629 10631 10635 10639 10642 10646 10650 10653 10654 10655 10658 10660 10662 10664 10666 10670 10675 10678 10683 10686 10687 10690 10693 10695 10695 10695 10696 10700 10703 10706 10706 10706 10708 10711 10713 10714 10714 10714 10712 10711 10711 10713 10715 10713 10712 10712 10708 10702 10701 10703 10704 10705 10705 10704 10702 10701 10699 10697 10695 10692 10687 10684 10682 10680 10678 10677
10513 10518 10523 10529 10535 10541 10547 10553 10559 10565 10571 10577 10582 10587 10592 10597 10602 10606 10611 10615 10617 10621 10625 10629 10632 10637 10640 10642 10644 10646 10648 10652 10654 10655 10659 10664 10667 10671 10674 10677 10680 10682 10683 10685 10685 10686 10689 10693 10696 10697 10696 10698 10701 10703 10704 10705 10704 10703 10701 10703 10706 10707 10705 10705 10704 10702 10697 10695 10696 10698 10699 10699 10697 10695 10694 10693 10691 10689 10686 10682 10678 10676 10674 10673 10671
10496 10501 10506 10511 10516 10523 10528 10534 10541 10547 10554 10560 10566 10572 10577 10582 10587 10592 10597 10600 10603 10607 10611 10615 10619 10623 10627 10630 10632 10633 10635 10639 10642 10645 10649 10652 10655 10658 10662 10665 10669 10671 10672 10674 10674 10675 10679 10683 10686 10686 10686 10689 10691 10692 10694 10696 10695 10693 10692 10694 10698 10698 10697 10698 10697 10695 10692 10689 10689 10691 10694 10693 10691 10689 10688 10687 10685 10683 10681 10677 10673 10671 10669 10668 10666
10478 10483 10488 10493 10498 10504 10510 10515 10522 10529 10535 10542 10549 10555 10561 10567 10572 10577 10582 10586 10589 10593 10597 10601 10605 10609 10614 10617 10619 10621 10622 10625 10628 10634 10638 10641 10644 10647 10650 10653 10657 10660 10662 10663 10663 10665 10670 10674 10676 10676 10677 10680 10681 10682 10684 10686 10685 10683 10684 10686 10689 10689 10689 10689 10688 10687 10685 10683 10681 10684 10686 10687 10685 10683 10682 10681 10679 10677 10675 10672 10669 10666 10664 10662 10661
10459 10464 10470 10475 10480 10486 10491 10497 10503 10509 10516 10523 10530 10537 10543 10550 10555 10561 10567 10571 10575 10579 10582 10586 10590 10595 10599 10603 10606 10608 10609 10610 10614 10620 10625 10629 10633 10637 10640 10643 10646 10649 10652 10652 10652 10655 10660 10663 10664 10665 10668 10671 10671 10671 10673 10675 10674 10674 10676 10678 10679 10680 10680 10680 10679 10678 10678 10676 10675 10676 10678 10679 10678 10676 10675 10675 10673 10671 10668 10666 10664 10662 10659 10657 10655
10439 10445 10451 10456 10462 10467 10473 10479 10484 10490 10496 10503 10510 10517 10524 10531 10538 10544 10550 10556 10561 10564 10568 10572 10575 10580 10585 10588 10592 10595 10596 10596 10599 10605 10611 10615 10620 10625 10629 10632 10636 10639 10641 10641 10641 10644 10648 10652 10653 10655 10660 10662 10660 10660 10662 10664 10664 10666 10667 10668 10670 10671 10671 10671 10670 10670 10669 10668 10668 10668 10670 10671 10670 10670 10669 10667 10666 10664 10662 10660 10659 10657 10654 10652 10650
10420 10425 10431 10436 10442 10448 10455 10461 10466 10472 10477 10483 10490 10497 10505 10512 10519 10526 10532 10539 10545 10549 10553 10557 10561 10565 10569 10574 10578 10581 10582 10582 10584 10590 10596 10600 10605 10611 10616 10620 10625 10628 10629 10630 10630 10633 10637 10639 10641 10645 10649 10651 10649 10649 10651 10653 10655 10656 10657 10658 10660 10662 10662 10661 10661 10661 10660 10659 10660 10661 10662 10663 10663 10663 10662 10660 10659 10657 10655 10654 10653 10651 10648 10647 10645
10401 10406 10412 10417 10422 10429 10435 10441 10447 10453 10459 10465 10471 10478 10485 10493 10500 10507 10514 10521 10528 10533 10538 10542 10546 10550 10554 10559 10563 10566 10568 10569 10570 10574 10580 10584 10589 10595 10601 10607 10613 10617 10618 10618 10620 10622 10625 10628 10630 10633 10636 10638 10638 10637 10639 10643 10645 10647 10647 10648 10651 10652 10652 10652 10652 10652 10651 10651 10652 10653 10655 10655 10655 10655 10655 10654 10652 10650 10648 10648 10646 10645 10643 10642 10639
10381 10387 10393 10399 10404 10410 10416 10422 10428 10434 10441 10447 10453 10459 10466 10473 10481 10488 10495 10502 10509 10515 10521 10526 10531 10535 10539 10543 10548 10551 10554 10555 10556 10558 10563 10568 10573 10579 10585 10592 10599 10604 10606 10607 10609 10611 10614 10616 10618 10620 10623 10625 10627 10627 10628 10632 10635 10637 10637 10638 10640 10642 10642 10642 10643 10642 10642 10642 10643 10645 10647 10647 10647 10648 10647 10646 10645 10644 10642 10641 10640 10638 10638 10636 10633
10363 10369 10375 10381 10387 10393 10398 10404 10409 10416 10423 10429 10435 10441 10448 10454 10462 10469 10475 10482 10490 10496 10503 10509 10514 10519 10523 10528 10532 10537 10539 10541 10542 10544 10548 10552 10558 10563 10569 10575 10583 10590 10595 10596 10597 10599 10601 10604 10606 10607 10609 10612 10615 10616 10618 10620 10624 10626 10626 10627 10630 10631 10632 10633 10632 10632 10633 10633 10635 10637 10638 10638 10638 10640 10639 10638 10638 10637 10635 10634 10633 10632 10632 10630 10628
10346 10351 10357 10362 10369 10375 10381 10386 10392 10397 10404 10410 10416 10422 10429 10436 10443 10450 10457 10463 10470 10477 10484 10490 10496 10502 10507 10511 10516 10521 10524 10525 10527 10530 10533 10537 10543 10549 10554 10558 10566 10575 10582 10584 10586 10586 10588 10591 10594 10595 10596 10600 10603 10604 10606 10609 10612 10615 10616 10617 10619 10621 10622 10623 10622 10622 10623 10624 10626 10628 10629 10630 10630 10631 10630 10630 10630 10629 10628 10627 10626 10625 10624 10624 10622
10328 10333 10339 10345 10351 10357 10363 10368 10373 10379 10386 10392 10398 10404 10411 10417 10423 10431 10438 10444 10450 10457 10464 10471 10477 10483 10489 10494 10499 10505 10508 10510 10512 10516 10519 10523 10528 10534 10538 10543 10550 10559 10567 10571 10573 10573 10574 10578 10581 10583 10584 10586 10589 10591 10593 10597 10600 10603 10605 10606 10608 10610 10611 10612 10612 10613 10614 10615 10616 10618 10620 10621 10622 10622 10621 10622 10622 10621 10621 10620 10619 10618 10617 10617 10616
10310 10316 10321 10327 10333 10339 10345 10351 10356 10362 10368 10374 10380 10386 10393 10398 10404 10411 10419 10425 10431 10438 10444 10451 10458 10464 10470 10476 10482 10487 10491 10493 10496 10500 10504 10508 10513 10519 10523 10527 10535 10544 10551 10556 10559 10560 10561 10564 10569 10571 10571 10573 10575 10578 10581 10584 10588 10591 10593 10596 10598 10600 10600 10601 10602 10603 10604 10605 10607 10609 10611 10612 10613 10613 10613 10614 10614 10614 10614 10613 10611 10610 10609 10609 10608
10292 10298 10304 10310 10316 10321 10327 10333 10339 10344 10350 10356 10362 10368 10374 10380 10386 10393 10400 10407 10413 10420 10426 10432 10439 10444 10450 10456 10463 10468 10473 10476 10479 10483 10488 10492 10496 10502 10506 10512 10520 10529 10536 10541 10545 10546 10547 10550 10555 10558 10558 10560 10562 10565 10569 10572 10575 10578 10581 10585 10588 10589 10590 10591 10593 10594 10594 10595 10597 10600 10602 10603 10604 10605 10604 10605 10606 10607 10607 10606 10604 10602 10601 10601 10601
10273 10279 10285 10291 10297 10303 10309 10315 10321 10326 10331 10337 10343 10349 10355 10361 10368 10375 10382 10388 10395 10402 10408 10415 10420 10426 10431 10437 10444 10450 10454 10457 10461 10465 10471 10475 10479 10484 10490 10496 10505 10514 10521 10526 10530 10533 10533 10536 10542 10545 10546 10547 10550 10552 10555 10558 10562 10566 10570 10574 10576 10577 10579 10581 10582 10584 10584 10585 10587 10590 10592 10594 10595 10596 10595 10596 10598 10600 10600 10599 10597 10595 10594 10594 10594
10255 10260 10266 10271 10278 10285 10291 10297 10302 10308 10313 10318 10324 10330 10337 10343 10350 10356 10363 10369 10376 10383 10390 10397 10403 10408 10413 10418 10425 10431 10436 10439 10443 10448 10453 10458 10461 10466 10473 10480 10488 10497 10504 10510 10515 10518 10520 10523 10528 10531 10533 10535 10536 10538 10541 10545 10549 10555 10559 10562 10564 10566 10568 10569 10571 10573 10574 10574 10577 10580 10583 10585 10586 10586 10586 10587 10589 10592 10593 10591 10589 10588 10587 10587 10587
10236 10242 10248 10254 10259 10266 10273 10279 10285 10291 10295 10300 10305 10311 10318 10326 10332 10339 10345 10350 10356 10364 10372 10379 10386 10391 10396 10401 10407 10413 10418 10422 10426 10431 10436 10440 10444 10449 10456 10464 10472 10480 10487 10493 10498 10502 10505 10508 10513 10517 10520 10522 10523 10524 10527 10532 10537 10543 10547 10550 10552 10554 10556 10558 10560 10562 10562 10563 10567 10571 10573 10576 10577 10576 10576 10578 10580 10584 10585 10583 10581 10580 10580 10581 10580
10219 10225 10231 10237 10242 10247 10254 10261 10267 10273 10278 10283 10288 10293 10300 10307 10314 10321 10327 10333 10338 10345 10353 10360 10367 10373 10379 10384 10390 10396 10402 10406 10410 10415 10419 10423 10427 10432 10439 10447 10455 10464 10470 10475 10480 10486 10490 10494 10498 10503 10506 10508 10508 10509 10513 10519 10525 10531 10535 10537 10539 10543 10544 10545 10547 10549 10551 10554 10558 10561 10563 10566 10568 10567 10566 10567 10570 10574 10576 10574 10572 10572 10572 10574 10574
10203 10208 10213 10219 10225 10231 10237 10243 10249 10255 10260 10265 10270 10276 10282 10289 10297 10304 10310 10316 10321 10327 10335 10343 10348 10354 10362 10368 10373 10380 10386 10390 10393 10398 10403 10406 10411 10416 10422 10431 10440 10448 10454 10458 10463 10469 10475 10478 10483 10487 10491 10493 10494 10494 10498 10505 10512 10518 10521 10524 10529 10532 10531 10531 10534 10538 10541 10545 10549 10551 10553 10556 10558 10557 10557 10557 10560 10564 10566 10565 10565 10564 10565 10566 10567
10188 10192 10197 10202 10208 10214 10220 10225 10231 10238 10243 10247 10251 10257 10264 10271 10279 10286 10293 10299 10304 10309 10317 10326 10332 10337 10344 10351 10357 10363 10370 10374 10377 10383 10388 10391 10395 10401 10408 10416 10425 10431 10437 10442 10447 10453 10459 10463 10467 10472 10475 10478 10479 10479 10483 10492 10499 10503 10507 10513 10518 10518 10515 10518 10524 10528 10531 10535 10539 10542 10544 10545 10547 10547 10546 10547 10550 10554 10556 10556 10556 10557 10557 10558 10559
10172 10176 10181 10186 10191 10197 10203 10209 10215 10220 10226 10230 10234 10239 10245 10252 10260 10268 10276 10282 10287 10293 10301 10309 10317 10321 10326 10334 10341 10347 10353 10359 10362 10367 10372 10376 10380 10387 10394 10402 10409 10414 10420 10426 10431 10437 10443 10448 10452 10455 10459 10463 10465 10465 10468 10477 10484 10489 10495 10500 10503 10502 10503 10509 10514 10518 10521 10526 10529 10532 10534 10534 10535 10536 10536 10536 10540 10544 10547 10547 10548 10548 10549 10550 10551
10156 10161 10165 10170 10175 10181 10186 10192 10198 10203 10209 10214 10217 10221 10228 10234 10241 10249 10258 10264 10270 10277 10285 10293 10301 10306 10311 10318 10325 10330 10336 10343 10348 10353 10357 10361 10366 10372 10380 10387 10393 10398 10405 10412 10417 10422 10427 10432 10436 10439 10442 10447 10450 10451 10454 10462 10470 10477 10482 10486 10487 10490 10494 10499 10503 10507 10512 10516 10518 10521 10523 10523 10524 10524 10524 10526 10530 10535 10537 10538 10539 10539 10540 10542 10542
10140 10145 10150 10154 10160 10164 10169 10175 10180 10186 10192 10198 10202 10206 10211 10217 10223 10231 10239 10247 10253 10261 10269 10277 10285 10291 10296 10303 10309 10315 10321 10328 10334 10339 10343 10347 10352 10358 10365 10372 10377 10384 10391 10398 10402 10407 10411 10416 10421 10423 10426 10431 10435 10436 10440 10448 10457 10465 10469 10471 10475 10479 10484 10488 10492 10498 10502 10505 10507 10510 10511 10511 10512 10513 10513 10516 10521 10525 10527 10528 10529 10530 10531 10533 10533
10124 10130 10135 10140 10145 10149 10154 10159 10164 10169 10175 10181 10187 10191 10194 10200 10206 10213 10222 10230 10237 10244 10252 10260 10269 10276 10281 10287 10294 10300 10306 10312 10319 10324 10328 10333 10339 10344 10351 10357 10363 10370 10377 10383 10388 10393 10397 10402 10406 10408 10410 10415 10420 10422 10426 10435 10444 10451 10455 10459 10464 10469 10474 10477 10482 10487 10491 10494 10496 10497 10498 10499 10500 10501 10504 10508 10512 10515 10517 10518 10520 10521 10522 10524 10525
10108 10114 10119 10124 10129 10134 10139 10143 10148 10153 10158 10164 10170 10175 10178 10183 10189 10197 10205 10213 10220 10227 10235 10244 10254 10261 10266 10272 10279 10285 10291 10297 10303 10308 10313 10319 10325 10331 10337 10343 10350 10357 10364 10370 10375 10379 10383 10387 10391 10392 10394 10399 10406 10410 10415 10423 10432 10438 10443 10448 10454 10460 10464 10467 10471 10476 10480 10482 10483 10484 10486 10487 10489 10492 10496 10500 10503 10506 10507 10508 10510 10512 10513 10515 10517
10091 10097 10102 10107 10112 10117 10122 10127 10132 10137 10142 10148 10153 10158 10162 10167 10173 10180 10189 10196 10203 10210 10218 10227 10237 10245 10251 10257 10263 10270 10276 10282 10287 10292 10299 10305 10312 10318 10324 10330 10337 10344 10351 10357 10362 10366 10370 10374 10376 10378 10380 10386 10393 10399 10404 10410 10417 10425 10431 10438 10444 10449 10454 10457 10461 10465 10468 10469 10471 10472 10474 10477 10481 10485 10488 10491 10493 10495 10497 10499 10501 10503 10505 10507 10509
10073 10079 10085 10091 10096 10101 10105 10110 10116 10121 10127 10132 10136 10141 10146 10151 10157 10164 10173 10180 10187 10194 10202 10211 10220 10229 10235 10241 10248 10255 10261 10266 10272 10278 10285 10292 10299 10305 10311 10317 10324 10331 10338 10344 10349 10354 10357 10360 10361 10364 10368 10375 10381 10387 10392 10398 10405 10414 10422 10428 10433 10438 10441 10445 10449 10453 10455 10457 10460 10461 10464 10468 10473 10476 10479 10481 10484 10485 10487 10490 10493 10495 10497 10499 10502
10056 10061 10068 10074 10080 10085 10089 10094 10099 10105 10111 10116 10121 10125 10130 10135 10141 10148 10156 10165 10172 10178 10186 10195 10203 10212 10219 10225 10232 10239 10245 10251 10257 10264 10271 10278 10285 10291 10297 10303 10310 10317 10325 10330 10336 10341 10344 10346 10348 10352 10358 10364 10371 10376 10382 10388 10395 10403 10410 10416 10421 10424 10428 10432 10438 10442 10445 10447 10449 10452 10455 10459 10462 10466 10468 10472 10474 10476 10478 10482 10485 10487 10489 10491 10494
10040 10045 10051 10058 10063 10068 10073 10078 10083 10088 10094 10100 10105 10110 10115 10120 10126 10132 10140 10149 10156 10163 10171 10179 10187 10196 10203 10209 10217 10224 10229 10236 10244 10250 10257 10264 10270 10277 10283 10290 10296 10304 10311 10316 10323 10329 10332 10333 10337 10342 10348 10354 10360 10366 10371 10377 10383 10390 10397 10402 10407 10412 10416 10421 10426 10431 10433 10435 10438 10441 10444 10448 10452 10455 10459 10462 10465 10467 10470 10474 10477 10479 10481 10483 10485
10025 10030 10036 10042 10047 10052 10056 10061 10067 10073 10078 10084 10090 10095 10100 10105 10111 10117 10124 10133 10141 10149 10157 10163 10171 10180 10187 10193 10201 10209 10215 10222 10230 10237 10243 10249 10256 10263 10270 10276 10283 10290 10297 10303 10310 10317 10321 10323 10327 10332 10337 10343 10349 10354 10359 10365 10371 10377 10384 10389 10395 10400 10405 10409 10414 10418 10421 10424 10428 10431 10434 10437 10442 10446 10449 10453 10455 10458 10462 10465 10468 10471 10473 10475 10477
10011 10016 10021 10027 10032 10037 10041 10046 10052 10058 10063 10069 10075 10080 10085 10090 10096 10102 10109 10117 10125 10134 10142 10149 10156 10164 10171 10178 10186 10194 10201 10208 10216 10223 10229 10235 10243 10250 10256 10262 10269 10276 10282 10290 10298 10305 10309 10312 10316 10321 10326 10332 10338 10343 10347 10353 10359 10365 10371 10377 10383 10388 10393 10398 10402 10406 10410 10413 10417 10420 10423 10427 10432 10436 10440 10443 10446 10450 10453 10456 10459 10462 10464 10466 10468
9998 10003 10008 10013 10019 10023 10027 10031 10036 10042 10048 10054 10060 10065 10070 10076 10082 10088 10094 10102 10110 10119 10127 10134 10141 10149 10156 10163 10171 10179 10187 10194 10201 10209 10216 10222 10229 10236 10243 10249 10255 10261 10268 10277 10285 10292 10297 10300 10304 10309 10315 10320 10326 10331 10335 10340 10346 10352 10358 10365 10371 10376 10381 10385 10390 10393 10397 10401 10405 10409 10413 10417 10422 10426 10431 10434 10438 10442 10445 10447 10450 10453 10455 10457 10460
9986 9990 9994 10000 10005 10010 10013 10016 10020 10026 10032 10038 10044 10050 10055 10061 10067 10074 10080 10087 10094 10103 10112 10119 10127 10134 10142 10149 10157 10165 10173 10180 10187 10195 10202 10208 10215 10222 10229 10235 10241 10247 10255 10264 10272 10279 10283 10288 10293 10298 10303 10308 10314 10318 10324 10329 10334 10340 10347 10353 10358 10364 10368 10372 10376 10381 10386 10391 10395 10399 10404 10408 10413 10418 10422 10426 10430 10433 10436 10438 10442 10445 10447 10449 10451
9975 9979 9983 9987 9992 9996 10000 10003 10005 10010 10016 10022 10028 10034 10040 10046 10052 10059 10066 10072 10079 10087 10096 10105 10112 10120 10128 10136 10144 10152 10159 10166 10173 10180 10187 10194 10201 10208 10215 10221 10227 10233 10241 10250 10258 10264 10269 10275 10281 10285 10291 10296 10302 10306 10312 10318 10323 10329 10335 10340 10345 10350 10354 10359 10365 10371 10376 10381 10386 10391 10395 10399 10404 10409 10413 10417 10421 10424 10427 10430 10433 10436 10437 10439 10442
9964 9967 9971 9975 9979 9984 9988 9990 9992 9997 10002 10008 10014 10020 10026 10032 10038 10044 10051 10058 10065 10072 10081 10089 10098 10106 10113 10122 10131 10138 10144 10151 10159 10165 10172 10180 10186 10193 10200 10207 10213 10220 10228 10236 10244 10250 10256 10262 10268 10273 10278 10284 10289 10295 10301 10306 10312 10317 10323 10328 10333 10338 10343 10348 10354 10360 10365 10371 10376 10381 10385 10389 10394 10399 10404 10408 10412 10415 10418 10421 10424 10426 10427 10430 10433
9953 9956 9959 9963 9967 9971 9975 9977 9980 9984 9990 9995 10001 10007 10013 10019 10025 10030 10037 10044 10051 10058 10066 10074 10083 10091 10099 10108 10117 10124 10130 10137 10145 10152 10158 10165 10172 10178 10185 10192 10199 10206 10214 10222 10230 10236 10243 10250 10256 10261 10266 10272 10278 10284 10289 10295 10300 10305 10310 10315 10321 10327 10332 10338 10343 10348 10354 10360 10365 10370 10374 10379 10385 10390 10394 10399 10402 10405 10408 10411 10414 10416 10418 10421 10424
9941 9944 9948 9951 9955 9959 9962 9965 9968 9973 9978 9983 9988 9994 10001 10007 10012 10018 10024 10030 10037 10045 10052 10060 10069 10077 10085 10093 10102 10109 10116 10123 10131 10138 10145 10151 10157 10164 10171 10178 10186 10193 10201 10208 10216 10223 10230 10237 10243 10249 10255 10261 10267 10273 10278 10283 10288 10293 10297 10303 10309 10315 10321 10326 10331 10337 10343 10348 10354 10359 10365 10370 10375 10380 10384 10389 10392 10395 10398 10401 10404 10406 10409 10412 10415
9928 9932 9936 9940 9944 9948 9951 9953 9957 9962 9967 9972 9976 9982 9989 9995 10001 10006 10011 10017 10024 10031 10038 10046 10054 10063 10071 10079 10087 10094 10102 10109 10117 10124 10131 10137 10144 10151 10158 10165 10173 10180 10188 10195 10202 10210 10217 10224 10231 10237 10244 10250 10256 10262 10267 10272 10277 10281 10286 10292 10298 10303 10308 10314 10320 10326 10332 10338 10344 10350 10355 10360 10365 10370 10374 10378 10382 10385 10388 10391 10394 10397 10400 10403 10406
9917 9922 9926 9930 9934 9937 9939 9942 9946 9951 9956 9961 9965 9970 9976 9983 9989 9995 10000 10005 10011 10018 10025 10033 10040 10049 10057 10065 10072 10079 10087 10095 10103 10110 10117 10123 10130 10137 10144 10152 10159 10167 10174 10181 10189 10197 10204 10211 10218 10225 10232 10238 10245 10251 10257 10262 10266 10271 10276 10281 10287 10292 10297 10303 10310 10316 10322 10328 10334 10339 10345 10350 10355 10359 10363 10367 10371 10374 10377 10381 10384 10388 10391 10393 10396
9907 9912 9916 9920 9924 9926 9928 9931 9935 9940 9946 9950 9955 9959 9965 9971 9977 9983 9989 9994 9999 10005 10012 10019 10026 10034 10043 10051 10058 10065 10072 10080 10088 10095 10102 10110 10116 10123 10130 10138 10146 10154 10161 10169 10176 10184 10191 10198 10206 10213 10220 10227 10233 10239 10245 10250 10255 10260 10265 10271 10277 10282 10287 10293 10299 10305 10311 10317 10323 10328 10333 10338 10343 10347 10352 10356 10360 10363 10367 10370 10374 10377 10380 10383 10387
9897 9902 9906 9910 9912 9914 9916 9919 9924 9929 9935 9939 9944 9949 9954 9959 9965 9971 9977 9982 9987 9993 9999 10006 10013 10021 10029 10037 10044 10050 10057 10065 10074 10081 10088 10096 10103 10109 10117 10125 10132 10141 10149 10156 10164 10172 10179 10186 10194 10201 10208 10215 10221 10227 10233 10239 10244 10249 10255 10261 10266 10271 10277 10283 10289 10294 10300 10306 10311 10317 10322 10327 10331 10336 10341 10345 10348 10352 10356 10360 10364 10367 10371 10375 10378
9887 9891 9895 9898 9900 9901 9903 9907 9912 9918 9923 9928 9933 9938 9943 9948 9954 9960 9966 9971 9976 9981 9987 9993 10000 10007 10015 10023 10030 10036 10043 10051 10060 10067 10075 10082 10090 10097 10104 10112 10120 10128 10136 10144 10152 10159 10166 10173 10181 10188 10196 10203 10209 10215 10221 10227 10233 10238 10243 10249 10255 10260 10266 10272 10278 10283 10289 10295 10300 10305 10310 10315 10320 10325 10329 10333 10338 10343 10347 10351 10355 10359 10363 10366 10369
9876 9879 9882 9885 9886 9888 9890 9895 9901 9907 9912 9917 9923 9928 9933 9937 9943 9948 9954 9961 9966 9971 9976 9982 9988 9995 10002 10010 10017 10023 10030 10038 10046 10054 10061 10069 10077 10085 10092 10100 10107 10115 10123 10131 10139 10146 10153 10161 10168 10176 10183 10190 10196 10203 10209 10215 10221 10227 10232 10237 10243 10248 10254 10260 10266 10272 10278 10284 10289 10294 10299 10304 10309 10313 10317 10323 10328 10333 10337 10342 10346 10350 10353 10356 10359
9863 9866 9868 9871 9873 9875 9879 9883 9889 9895 9901 9906 9912 9917 9922 9926 9931 9937 9943 9950 9955 9960 9965 9971 9977 9983 9990 9997 10004 10011 10018 10025 10033 10040 10048 10057 10065 10072 10080 10088 10095 10103 10111 10119 10126 10134 10141 10148 10156 10163 10170 10177 10184 10190 10197 10203 10209 10215 10221 10226 10231 10237 10242 10249 10255 10260 10266 10272 10277 10282 10288 10292 10297 10301 10306 10312 10318 10323 10327 10332 10336 10340 10343 10346 10349
9851 9853 9855 9857 9861 9865 9869 9873 9877 9884 9890 9896 9901 9907 9911 9915 9920 9926 9932 9938 9944 9949 9954 9960 9966 9972 9979 9986 9992 9999 10006 10013 10020 10028 10036 10044 10052 10060 10068 10076 10083 10091 10098 10106 10114 10121 10129 10136 10143 10150 10157 10164 10171 10178 10185 10191 10197 10203 10209 10214 10220 10225 10231 10236 10242 10247 10253 10259 10264 10270 10275 10280 10285 10290 10296 10302 10307 10312 10317 10321 10325 10329 10333 10336 10339
9838 9840 9843 9847 9851 9855 9859 9863 9867 9873 9880 9886 9891 9897 9901 9905 9910 9915 9921 9927 9933 9938 9943 9948 9954 9960 9967 9974 9981 9987 9994 10001 10008 10015 10023 10031 10040 10048 10056 10063 10071 10078 10086 10094 10102 10109 10117 10124 10131 10138 10145 10152 10159 10166 10172 10179 10186 10192 10198 10203 10209 10214 10219 10224 10230 10236 10242 10248 10253 10258 10263 10268 10273 10279 10285 10291 10296 10301 10306 10310 10315 10319 10322 10326 10329
9829 9831 9834 9838 9842 9846 9850 9854 9858 9863 9869 9876 9882 9887 9892 9896 9901 9905 9910 9916 9922 9928 9933 9938 9943 9949 9956 9962 9969 9976 9983 9990 9996 10003 10011 10019 10027 10035 10043 10051 10059 10066 10074 10081 10089 10097 10104 10112 10119 10125 10132 10140 10147 10154 10160 10167 10174 10180 10187 10192 10197 10203 10208 10213 10219 10225 10231 10236 10241 10245 10251 10257 10262 10268 10274 10279 10285 10290 10295 10299 10304 10308 10311 10315 10319
9821 9823 9826 9830 9833 9837 9841 9845 9849 9854 9859 9866 9872 9877 9882 9888 9892 9896 9900 9905 9912 9918 9923 9928 9933 9939 9945 9951 9957 9964 9971 9978 9985 9992 9999 10007 10015 10022 10030 10038 10046 10054 10061 10069 10076 10084 10092 10099 10107 10113 10120 10128 10134 10141 10148 10155 10162 10168 10175 10181 10186 10192 10197 10203 10208 10213 10219 10223 10228 10233 10239 10245 10251 10256 10262 10267 10272 10277 10282 10287 10292 10296 10300 10304 10308
9812 9815 9818 9821 9825 9828 9832 9836 9840 9845 9850 9856 9862 9868 9873 9879 9883 9888 9892 9896 9902 9908 9913 9918 9924 9929 9934 9940 9946 9953 9960 9967 9974 9980 9987 9995 10002 10010 10018 10026 10034 10042 10049 10057 10064 10072 10079 10087 10094 10101 10109 10116 10122 10129 10136 10143 10150 10157 10163 10169 10175 10181 10186 10192 10197 10202 10207 10212 10217 10222 10228 10233 10239 10244 10249 10254 10259 10264 10270 10275 10280 10284 10289 10293 10297
9803 9806 9809 9812 9816 9820 9823 9827 9832 9836 9841 9846 9852 9858 9864 9869 9875 9879 9883 9888 9893 9898 9904 9909 9915 9919 9925 9930 9936 9942 9949 9956 9963 9970 9976 9984 9991 9998 10006 10013 10021 10029 10037 10044 10052 10059 10067 10074 10082 10089 10096 10103 10110 10117 10124 10132 10139 10145 10151 10157 10163 10169 10175 10181 10186 10191 10196 10201 10206 10211 10217 10222 10227 10232 10237 10242 10247 10252 10257 10263 10268 10273 10278 10282 10286
9794 9797 9800 9803 9807 9811 9815 9819 9823 9827 9832 9837 9842 9848 9854 9859 9865 9870 9874 9879 9884 9889 9895 9901 9906 9911 9916 9921 9926 9932 9938 9945 9952 9959 9966 9972 9979 9987 9994 10001 10009 10017 10025 10032 10040 10047 10055 10062 10070 10077 10084 10091 10098 10105 10112 10120 10127 10134 10140 10146 10152 10158 10164 10169 10175 10180 10185 10190 10195 10200 10206 10211 10216 10221 10226 10231 10236 10241 10246 10252 10257 10262 10267 10272 10275